Time,TemperatureF,DewpointF,PressureIn,WindDirection,WindDirectionDegrees,WindSpeedMPH,WindSpeedGustMPH,Humidity,HourlyPrecipIn,Conditions,Clouds,dailyrainin,SolarRadiationWatts/m^2,SoftwareType,DateUTC
2013-05-04 00:02:00,72.0,64.0,-100.00,NE,47,2.0,6.0,77,0.00,,,1.13,0.000000,,2013-05-04 10:02:00,
2013-05-04 00:12:00,72.0,64.0,-100.00,NE,47,2.0,6.0,77,0.00,,,1.13,0.000000,,2013-05-04 10:12:00,
2013-05-04 00:42:00,73.0,65.0,-100.00,ENE,63,2.0,4.0,76,0.00,,,1.13,0.000000,,2013-05-04 10:42:00,
2013-05-04 00:53:00,73.0,65.0,-100.00,ENE,63,2.0,4.0,76,0.00,,,1.13,0.000000,,2013-05-04 10:53:00,
2013-05-04 01:02:00,73.0,65.0,-100.00,ENE,63,2.0,4.0,76,0.00,,,1.13,0.000000,,2013-05-04 11:02:00,
2013-05-04 01:11:00,73.0,65.0,-100.00,ENE,63,2.0,4.0,76,0.00,,,1.13,0.000000,,2013-05-04 11:11:00,
2013-05-04 01:21:00,73.0,65.0,-100.00,ENE,63,2.0,4.0,76,0.00,,,1.13,0.000000,,2013-05-04 11:21:00,
2013-05-04 01:46:00,72.0,68.0,-100.00,NE,50,3.0,9.0,87,0.00,,,1.13,0.000000,,2013-05-04 11:46:00,
2013-05-04 02:00:00,72.0,68.0,-100.00,NE,50,3.0,9.0,87,0.00,,,1.13,0.000000,,2013-05-04 12:00:00,
2013-05-04 02:12:00,72.0,68.0,-100.00,NE,50,3.0,9.0,87,0.00,,,1.13,0.000000,,2013-05-04 12:12:00,
2013-05-04 02:42:00,69.0,67.0,-100.00,NE,47,3.0,8.0,92,0.12,,,1.25,0.000000,,2013-05-04 12:42:00,
2013-05-04 02:52:00,69.0,67.0,-100.00,NE,47,3.0,8.0,92,0.12,,,1.25,0.000000,,2013-05-04 12:52:00,
2013-05-04 03:01:00,69.0,67.0,-100.00,NE,47,3.0,8.0,92,0.12,,,1.25,0.000000,,2013-05-04 13:01:00,
2013-05-04 03:11:00,69.0,67.0,-100.00,NE,47,3.0,8.0,92,0.12,,,1.25,0.000000,,2013-05-04 13:11:00,
2013-05-04 03:21:00,69.0,67.0,-100.00,NE,47,3.0,8.0,92,0.12,,,1.25,0.000000,,2013-05-04 13:21:00,
2013-05-04 03:42:00,69.0,67.0,-100.00,ENE,73,2.0,6.0,92,0.01,,,1.26,0.000000,,2013-05-04 13:42:00,
2013-05-04 03:52:00,69.0,67.0,-100.00,ENE,73,2.0,6.0,92,0.01,,,1.26,0.000000,,2013-05-04 13:52:00,
2013-05-04 04:02:00,69.0,67.0,-100.00,ENE,73,2.0,6.0,92,0.01,,,1.26,0.000000,,2013-05-04 14:02:00,
2013-05-04 04:11:00,69.0,67.0,-100.00,ENE,73,2.0,6.0,92,0.01,,,1.26,0.000000,,2013-05-04 14:11:00,
2013-05-04 04:21:00,69.0,67.0,-100.00,ENE,73,2.0,6.0,92,0.01,,,1.26,0.000000,,2013-05-04 14:21:00,
2013-05-04 04:42:00,69.0,65.0,-100.00,NE,37,2.0,5.0,86,0.05,,,1.31,0.000000,,2013-05-04 14:42:00,
2013-05-04 04:52:00,69.0,65.0,-100.00,NE,37,2.0,5.0,86,0.05,,,1.31,0.000000,,2013-05-04 14:52:00,
2013-05-04 05:01:00,69.0,65.0,-100.00,NE,37,2.0,5.0,86,0.05,,,1.31,0.000000,,2013-05-04 15:01:00,
2013-05-04 05:11:00,69.0,65.0,-100.00,NE,37,2.0,5.0,86,0.05,,,1.31,0.000000,,2013-05-04 15:11:00,
2013-05-04 05:21:00,69.0,65.0,-100.00,NE,37,2.0,5.0,86,0.05,,,1.31,0.000000,,2013-05-04 15:21:00,
2013-05-04 05:22:00,69.0,65.0,-100.00,ENE,65,3.0,6.0,87,0.00,,,1.31,0.000000,,2013-05-04 15:22:00,
2013-05-04 05:43:00,69.0,65.0,-100.00,ENE,65,3.0,6.0,87,0.00,,,1.31,0.000000,,2013-05-04 15:43:00,
2013-05-04 05:53:00,69.0,65.0,-100.00,ENE,65,3.0,6.0,87,0.00,,,1.31,0.000000,,2013-05-04 15:53:00,
2013-05-04 06:03:00,69.0,65.0,-100.00,ENE,65,3.0,6.0,87,0.00,,,1.31,0.000000,,2013-05-04 16:03:00,
2013-05-04 06:12:00,69.0,65.0,-100.00,ENE,65,3.0,6.0,87,0.00,,,1.31,0.000000,,2013-05-04 16:12:00,
2013-05-04 06:22:00,69.0,66.0,-100.00,East,85,1.0,4.0,90,0.00,,,1.31,0.000000,,2013-05-04 16:22:00,
2013-05-04 06:42:00,69.0,66.0,-100.00,East,85,1.0,4.0,90,0.00,,,1.31,0.000000,,2013-05-04 16:42:00,
2013-05-04 06:52:00,69.0,66.0,-100.00,East,85,1.0,4.0,90,0.00,,,1.31,0.000000,,2013-05-04 16:52:00,
2013-05-04 07:02:00,69.0,66.0,-100.00,East,85,1.0,4.0,90,0.00,,,1.31,0.000000,,2013-05-04 17:02:00,
2013-05-04 07:12:00,69.0,66.0,-100.00,East,85,1.0,4.0,90,0.00,,,1.31,0.000000,,2013-05-04 17:12:00,
2013-05-04 07:42:00,70.0,67.0,-100.00,SE,132,1.0,3.0,91,0.00,,,1.09,38.000000,,2013-05-04 17:42:00,
2013-05-04 07:52:00,70.0,67.0,-100.00,SE,132,1.0,3.0,91,0.00,,,1.09,38.000000,,2013-05-04 17:52:00,
2013-05-04 08:01:00,70.0,67.0,-100.00,SE,132,1.0,3.0,91,0.00,,,1.09,38.000000,,2013-05-04 18:01:00,
2013-05-04 08:12:00,70.0,67.0,-100.00,SE,132,1.0,3.0,91,0.00,,,1.09,38.000000,,2013-05-04 18:12:00,
2013-05-04 08:21:00,70.0,67.0,-100.00,SE,132,1.0,3.0,91,0.00,,,1.09,38.000000,,2013-05-04 18:21:00,
2013-05-04 08:42:00,71.0,66.0,-100.00,NE,53,2.0,5.0,85,0.00,,,0.63,89.000000,,2013-05-04 18:42:00,
2013-05-04 08:52:00,71.0,66.0,-100.00,NE,53,2.0,5.0,85,0.00,,,0.63,89.000000,,2013-05-04 18:52:00,
2013-05-04 09:01:00,71.0,66.0,-100.00,NE,53,2.0,5.0,85,0.00,,,0.63,89.000000,,2013-05-04 19:01:00,
2013-05-04 09:11:00,71.0,66.0,-100.00,NE,53,2.0,5.0,85,0.00,,,0.63,89.000000,,2013-05-04 19:11:00,
2013-05-04 09:21:00,71.0,66.0,-100.00,NE,53,2.0,5.0,85,0.00,,,0.63,89.000000,,2013-05-04 19:21:00,
2013-05-04 09:42:00,73.0,68.0,-100.00,NNW,340,2.0,6.0,83,0.00,,,0.25,153.000000,,2013-05-04 19:42:00,
2013-05-04 09:52:00,73.0,68.0,-100.00,NNW,340,2.0,6.0,83,0.00,,,0.25,153.000000,,2013-05-04 19:52:00,
2013-05-04 10:02:00,73.0,68.0,-100.00,NNW,340,2.0,6.0,83,0.00,,,0.25,153.000000,,2013-05-04 20:02:00,
2013-05-04 10:11:00,73.0,68.0,-100.00,NNW,340,2.0,6.0,83,0.00,,,0.25,153.000000,,2013-05-04 20:11:00,
2013-05-04 10:21:00,73.0,68.0,-100.00,NNW,340,2.0,6.0,83,0.00,,,0.25,153.000000,,2013-05-04 20:21:00,
2013-05-04 10:22:00,73.0,67.0,-100.00,WNW,289,2.0,4.0,81,0.00,,,0.19,135.000000,,2013-05-04 20:22:00,
2013-05-04 10:52:00,73.0,67.0,-100.00,WNW,289,2.0,4.0,81,0.00,,,0.19,135.000000,,2013-05-04 20:52:00,
2013-05-04 11:02:00,73.0,67.0,-100.00,WNW,289,2.0,4.0,81,0.00,,,0.19,135.000000,,2013-05-04 21:02:00,
2013-05-04 11:11:00,73.0,67.0,-100.00,WNW,289,2.0,4.0,81,0.00,,,0.19,135.000000,,2013-05-04 21:11:00,
2013-05-04 11:22:00,74.0,67.0,-100.00,West,268,2.0,6.0,78,0.00,,,0.18,320.000000,,2013-05-04 21:22:00,
2013-05-04 11:43:00,74.0,67.0,-100.00,West,268,2.0,6.0,78,0.00,,,0.18,320.000000,,2013-05-04 21:43:00,
2013-05-04 11:53:00,74.0,67.0,-100.00,West,268,2.0,6.0,78,0.00,,,0.18,320.000000,,2013-05-04 21:53:00,
2013-05-04 12:02:00,74.0,67.0,-100.00,West,268,2.0,6.0,78,0.00,,,0.18,320.000000,,2013-05-04 22:02:00,
2013-05-04 12:12:00,74.0,67.0,-100.00,West,268,2.0,6.0,78,0.00,,,0.18,320.000000,,2013-05-04 22:12:00,
2013-05-04 12:42:00,75.0,66.0,-100.00,West,275,2.0,6.0,74,0.00,,,0.18,267.000000,,2013-05-04 22:42:00,
2013-05-04 12:52:00,75.0,66.0,-100.00,West,275,2.0,6.0,74,0.00,,,0.18,267.000000,,2013-05-04 22:52:00,
2013-05-04 13:02:00,75.0,66.0,-100.00,West,275,2.0,6.0,74,0.00,,,0.18,267.000000,,2013-05-04 23:02:00,
2013-05-04 13:11:00,75.0,66.0,-100.00,West,275,2.0,6.0,74,0.00,,,0.18,267.000000,,2013-05-04 23:11:00,
2013-05-04 13:21:00,75.0,66.0,-100.00,West,275,2.0,6.0,74,0.00,,,0.18,267.000000,,2013-05-04 23:21:00,
2013-05-04 13:42:00,75.0,65.0,-100.00,West,269,3.0,6.0,71,0.00,,,0.18,291.000000,,2013-05-04 23:42:00,
2013-05-04 13:52:00,75.0,65.0,-100.00,West,269,3.0,6.0,71,0.00,,,0.18,291.000000,,2013-05-04 23:52:00,
2013-05-04 14:01:00,75.0,65.0,-100.00,West,269,3.0,6.0,71,0.00,,,0.18,291.000000,,2013-05-05 00:01:00,
2013-05-04 14:11:00,75.0,65.0,-100.00,West,269,3.0,6.0,71,0.00,,,0.18,291.000000,,2013-05-05 00:11:00,
2013-05-04 14:21:00,75.0,65.0,-100.00,West,269,3.0,6.0,71,0.00,,,0.18,291.000000,,2013-05-05 00:21:00,
2013-05-04 14:42:00,76.0,67.0,-100.00,West,266,2.0,5.0,73,0.00,,,0.18,267.000000,,2013-05-05 00:42:00,
2013-05-04 14:52:00,76.0,67.0,-100.00,West,266,2.0,5.0,73,0.00,,,0.18,267.000000,,2013-05-05 00:52:00,
2013-05-04 15:01:00,76.0,67.0,-100.00,West,266,2.0,5.0,73,0.00,,,0.18,267.000000,,2013-05-05 01:01:00,
2013-05-04 15:11:00,76.0,67.0,-100.00,West,266,2.0,5.0,73,0.00,,,0.18,267.000000,,2013-05-05 01:11:00,
2013-05-04 15:21:00,76.0,67.0,-100.00,West,266,2.0,5.0,73,0.00,,,0.18,267.000000,,2013-05-05 01:21:00,
2013-05-04 15:42:00,75.0,67.0,-100.00,NW,305,2.0,6.0,76,0.00,,,0.18,206.000000,,2013-05-05 01:42:00,
2013-05-04 15:52:00,75.0,67.0,-100.00,NW,305,2.0,6.0,76,0.00,,,0.18,206.000000,,2013-05-05 01:52:00,
2013-05-04 16:02:00,75.0,67.0,-100.00,NW,305,2.0,6.0,76,0.00,,,0.18,206.000000,,2013-05-05 02:02:00,
2013-05-04 16:11:00,75.0,67.0,-100.00,NW,305,2.0,6.0,76,0.00,,,0.18,206.000000,,2013-05-05 02:11:00,
2013-05-04 16:21:00,75.0,67.0,-100.00,NW,305,2.0,6.0,76,0.00,,,0.18,206.000000,,2013-05-05 02:21:00,
2013-05-04 16:42:00,75.0,66.0,-100.00,NNW,337,2.0,7.0,74,0.00,,,0.18,220.000000,,2013-05-05 02:42:00,
2013-05-04 16:52:00,75.0,66.0,-100.00,NNW,337,2.0,7.0,74,0.00,,,0.18,220.000000,,2013-05-05 02:52:00,
2013-05-04 17:01:00,75.0,66.0,-100.00,NNW,337,2.0,7.0,74,0.00,,,0.18,220.000000,,2013-05-05 03:01:00,
2013-05-04 17:11:00,75.0,66.0,-100.00,NNW,337,2.0,7.0,74,0.00,,,0.18,220.000000,,2013-05-05 03:11:00,
2013-05-04 17:21:00,75.0,66.0,-100.00,NNW,337,2.0,7.0,74,0.00,,,0.18,220.000000,,2013-05-05 03:21:00,
2013-05-04 17:22:00,75.0,67.0,-100.00,West,278,2.0,6.0,75,0.00,,,-99.99,109.000000,,2013-05-05 03:22:00,
2013-05-04 17:42:00,75.0,67.0,-100.00,West,278,2.0,6.0,75,0.00,,,-99.99,109.000000,,2013-05-05 03:42:00,
2013-05-04 17:53:00,75.0,67.0,-100.00,West,278,2.0,6.0,75,0.00,,,-99.99,109.000000,,2013-05-05 03:53:00,
2013-05-04 18:02:00,75.0,67.0,-100.00,West,278,2.0,6.0,75,0.00,,,-99.99,109.000000,,2013-05-05 04:02:00,
2013-05-04 18:12:00,75.0,67.0,-100.00,West,278,2.0,6.0,75,0.00,,,-99.99,109.000000,,2013-05-05 04:12:00,
2013-05-04 18:43:00,75.0,67.0,-100.00,WSW,249,2.0,7.0,77,0.00,,,0.18,149.000000,,2013-05-05 04:43:00,
2013-05-04 18:52:00,75.0,67.0,-100.00,WSW,249,2.0,7.0,77,0.00,,,0.18,149.000000,,2013-05-05 04:52:00,
2013-05-04 19:02:00,75.0,67.0,-100.00,WSW,249,2.0,7.0,77,0.00,,,0.18,149.000000,,2013-05-05 05:02:00,
2013-05-04 19:12:00,75.0,67.0,-100.00,WSW,249,2.0,7.0,77,0.00,,,0.18,149.000000,,2013-05-05 05:12:00,
2013-05-04 19:21:00,75.0,67.0,-100.00,WSW,249,2.0,7.0,77,0.00,,,0.18,149.000000,,2013-05-05 05:21:00,
2013-05-04 19:42:00,73.0,67.0,-100.00,SSW,192,3.0,8.0,81,0.00,,,0.18,19.000000,,2013-05-05 05:42:00,
2013-05-04 19:52:00,73.0,67.0,-100.00,SSW,192,3.0,8.0,81,0.00,,,0.18,19.000000,,2013-05-05 05:52:00,
2013-05-04 20:01:00,73.0,67.0,-100.00,SSW,192,3.0,8.0,81,0.00,,,0.18,19.000000,,2013-05-05 06:01:00,
2013-05-04 20:11:00,73.0,67.0,-100.00,SSW,192,3.0,8.0,81,0.00,,,0.18,19.000000,,2013-05-05 06:11:00,
2013-05-04 20:21:00,73.0,67.0,-100.00,SSW,192,3.0,8.0,81,0.00,,,0.18,19.000000,,2013-05-05 06:21:00,
2013-05-04 20:42:00,72.0,66.0,-100.00,East,89,2.0,5.0,82,0.00,,,0.18,0.000000,,2013-05-05 06:42:00,
2013-05-04 20:52:00,72.0,66.0,-100.00,East,89,2.0,5.0,82,0.00,,,0.18,0.000000,,2013-05-05 06:52:00,
2013-05-04 21:01:00,72.0,66.0,-100.00,East,89,2.0,5.0,82,0.00,,,0.18,0.000000,,2013-05-05 07:01:00,
2013-05-04 21:11:00,72.0,66.0,-100.00,East,89,2.0,5.0,82,0.00,,,0.18,0.000000,,2013-05-05 07:11:00,
2013-05-04 21:21:00,72.0,66.0,-100.00,East,89,2.0,5.0,82,0.00,,,0.18,0.000000,,2013-05-05 07:21:00,
2013-05-04 21:42:00,72.0,66.0,-100.00,ENE,78,1.0,3.0,82,0.00,,,0.18,0.000000,,2013-05-05 07:42:00,
2013-05-04 21:52:00,72.0,66.0,-100.00,ENE,78,1.0,3.0,82,0.00,,,0.18,0.000000,,2013-05-05 07:52:00,
2013-05-04 22:02:00,72.0,66.0,-100.00,ENE,78,1.0,3.0,82,0.00,,,0.18,0.000000,,2013-05-05 08:02:00,
2013-05-04 22:11:00,72.0,66.0,-100.00,ENE,78,1.0,3.0,82,0.00,,,0.18,0.000000,,2013-05-05 08:11:00,
2013-05-04 22:21:00,72.0,66.0,-100.00,ENE,78,1.0,3.0,82,0.00,,,0.18,0.000000,,2013-05-05 08:21:00,
2013-05-04 22:42:00,71.0,65.0,-100.00,ENE,74,2.0,4.0,80,0.00,,,0.18,0.000000,,2013-05-05 08:42:00,
2013-05-04 22:53:00,71.0,65.0,-100.00,ENE,74,2.0,4.0,80,0.00,,,0.18,0.000000,,2013-05-05 08:53:00,
2013-05-04 23:01:00,71.0,65.0,-100.00,ENE,74,2.0,4.0,80,0.00,,,0.18,0.000000,,2013-05-05 09:01:00,
2013-05-04 23:11:00,71.0,65.0,-100.00,ENE,74,2.0,4.0,80,0.00,,,0.18,0.000000,,2013-05-05 09:11:00,
2013-05-04 23:21:00,71.0,65.0,-100.00,ENE,74,2.0,4.0,80,0.00,,,0.18,0.000000,,2013-05-05 09:21:00,
2013-05-04 23:22:00,71.0,63.0,-100.00,ENE,60,2.0,4.0,77,0.00,,,0.18,0.000000,,2013-05-05 09:22:00,
2013-05-04 23:42:00,71.0,63.0,-100.00,ENE,60,2.0,4.0,77,0.00,,,0.18,0.000000,,2013-05-05 09:42:00,
2013-05-04 23:52:00,71.0,63.0,-100.00,ENE,60,2.0,4.0,77,0.00,,,0.18,0.000000,,2013-05-05 09:52:00,